User: anonymous   Login
Location: Unspecified
(0.0000°N, 0.0000°E)
Time: 17:46:00
(UTC+00:00)
Language:

Gonets-D1 - Orbit

View from above orbital plane
View from above orbital plane
View from above satellite
View from above satellite

Ground track
Ground track

The orbit data is extracted from the following two-line orbital elements,

1 24727U 97006C   18049.91589459 +.00000004 +00000-0 -36851-4 0  9998
2 24727 082.6050 028.5760 0001645 100.8497 315.1649 12.62320061968025
Epoch (UTC): 18 February 2018 21:58:53
Eccentricity: 0.0001645
inclination: 82.6050°
perigee height: 1412 km
apogee height: 1414 km
right ascension of ascending node: 28.5760°
argument of perigee: 100.8497°
revolutions per day: 12.62320061
mean anomaly at epoch: 315.1649°
orbit number at epoch: 96802

The dashed part of the orbit path shows where the satellite is in the earth's shadow,  

DLR